Home   Weather   Manassas   Past weeks

Flag for USA Past Weather in Manassas, Virginia, USA — Yesterday and Last 2 Weeks

Now
90 °F

Sunny.


Feels Like: 94 °F
Forecast: 68 / 88 °F
Wind: 6 mph from North

Location: Manassas Municipal

Current Time: Aug 16, 2017 at 3:49:43 pm

Latest Report: Aug 16, 2017 at 2:56 pm


Visibility: 10 mi

Pressure: 30.02 "Hg

Humidity: 48%

Dew Point: 68 °F

Location of ManassasLocation

Past Weather in Manassas — Graph

°F

Manassas Temperature Yesterday

Maximum temperature yesterday: 81 °F (at 4:03 pm)
Minimum temperature yesterday: 70 °F (at 11:23 pm)
Average temperature yesterday: 73 °F

High & Low Weather Summary for the Past Weeks

 TemperatureHumidityPressure
High90 °F (Aug 4, 2:56 pm)100% (Aug 2, 6:37 am)30.30 "Hg (Aug 2, 6:37 am)
Low55 °F (Aug 9, 5:44 am)38% (Aug 9, 1:56 pm)29.87 "Hg (Aug 5, 1:56 am)
Average73 °F82%30.04 "Hg
* Reported Aug 1 1:56 pm — Aug 16 1:56 pm, Manassas. Weather by CustomWeather, © 2017

Note: Actual official high and low records may vary slightly from our data, if they occured in-between our weather recording intervals... More about our weather records

Advertising

Manassas Weather History for the Previous 24 Hours

Scroll right to see more
 ConditionsComfort  
Time TempWeatherWind HumidityBarometerVisibility
1:56 pm
Wed, Aug 16
87 °FSunny.6 mph57%30.03 "Hg10 mi
12:56 pm88 °FPassing clouds.8 mph57%30.04 "Hg10 mi
11:56 am83 °FSunny.No wind72%30.04 "Hg10 mi
10:56 am79 °FSunny.3 mph82%30.05 "Hg9 mi
10:13 am75 °FScattered clouds.3 mph94%30.03 "Hg10 mi
9:26 am72 °FFog.3 mph100%30.03 "Hg5 mi
9:17 am72 °FFog.No wind100%30.02 "Hg2 mi
9:04 am72 °FFog.No wind94%30.02 "Hg1 mi
8:07 am70 °FFog.No wind94%30.01 "Hg1 mi
6:56 am67 °FFog.No wind100%30.03 "Hg0 mi
6:38 am66 °FFog.No wind100%30.00 "Hg3 mi
6:06 am66 °FFog.No wind100%29.99 "Hg1 mi
5:56 am66 °FFog.3 mph100%30.01 "Hg1 mi
5:19 am66 °FFog.No wind100%29.97 "Hg0 mi
5:00 am64 °FFog.No wind100%29.96 "Hg1 mi
4:36 am66 °FFog.No wind100%29.96 "Hg1 mi
4:13 am66 °FFog.No wind100%29.95 "Hg2 mi
3:56 am66 °FClear.No wind100%29.97 "Hg9 mi
3:24 am66 °FPassing clouds.No wind100%29.95 "Hg10 mi
3:09 am64 °FFog.No wind100%29.95 "Hg1 mi
2:44 am66 °FFog.No wind100%29.95 "Hg1 mi
2:36 am68 °FFog.No wind94%29.95 "Hg3 mi
2:08 am66 °FFog.No wind100%29.95 "Hg1 mi
1:58 am66 °FFog.No wind100%29.95 "Hg4 mi
1:19 am66 °FFog.No wind100%29.95 "Hg0 mi
1:08 am68 °FFog.No wind94%29.96 "Hg1 mi
12:23 am70 °FFog.No wind94%29.95 "Hg3 mi
12:09 am70 °FFog.No wind100%29.95 "Hg1 mi
11:56 pm
Tue, Aug 15
70 °FFog.No wind97%29.97 "Hg1 mi
11:40 pm70 °FFog.No wind100%29.94 "Hg1 mi
11:23 pm70 °FFog.3 mph100%29.94 "Hg2 mi
10:56 pm70 °FFog.No wind100%29.97 "Hg3 mi
10:26 pm72 °FFog.No wind94%29.93 "Hg3 mi
10:19 pm72 °FFog.No wind94%29.93 "Hg2 mi
10:09 pm72 °FFog.No wind100%29.94 "Hg1 mi
9:56 pm71 °FFog.No wind100%29.96 "Hg5 mi
8:56 pm73 °FPassing clouds.No wind94%29.94 "Hg10 mi
7:56 pm77 °FSunny.3 mph85%29.93 "Hg10 mi
6:56 pm80 °FPassing clouds.7 mph79%29.90 "Hg10 mi
5:56 pm80 °FPartly sunny.7 mph79%29.91 "Hg10 mi
4:56 pm78 °FOvercast.7 mph84%29.90 "Hg10 mi
4:38 pm79 °FCloudy.7 mph84%29.89 "Hg10 mi
4:03 pm81 °FPartly sunny.6 mph79%29.88 "Hg10 mi
3:31 pm79 °FBroken clouds.6 mph84%29.89 "Hg10 mi
Weather by CustomWeather, © 2017

See weather overviewHow to use our weather pages